Regional Weather Roundup
Issued by NWS Grand Forks, ND

Home | Current Version | Previous Version | Graphics & Text | Print | Product List | Glossary On
Versions: 1 2 3 4 5 6 7 8 9 10 11 12 13 14 15 16 17 18 19 20 21 22 23 24 25 26 27 28 29 30 31 32 33 34 35 36 37 38 39 40 41 42 43 44 45 46 47 48 49 50
370
ASUS43 KFGF 260331
RWRFGF
PRAIRIE TO PINES  WEATHER ROUNDUP
NATIONAL WEATHER SERVICE EASTERN NORTH DAKOTA/GRAND FORKS ND
900 PM CST SAT FEB 25 2017

 **SATELLITE DATA USED TO AUGMENT SKY COVER AT AUTOMATED STATIONS**
 *****  WEATHER ACROSS EASTERN NORTH DAKOTA  *****

CITY           SKY/WX    TMP DP  RH WIND       PRES   REMARKS
GRAND FORKS    CLOUDY    20  10  65 N13       29.74F WCI   7
GRAND FRKS AFB FAIR      18  10  73 N10       29.74F WCI   6
DEVILS LAKE    LGT SNOW  16  13  88 NE10      29.70F FOG     WCI   4
FARGO          CLOUDY    25  21  85 W6        29.73F WCI  18
WAHPETON ARPT  CLOUDY    27  25  93 CALM      29.74F
$$

 ***** WEATHER ACROSS CENTRAL AND WESTERN NORTH DAKOTA  *****

CITY           SKY/WX    TMP DP  RH WIND       PRES   REMARKS
BISMARCK       FAIR      22  18  85 VRB3      29.66F
MINOT          LGT SNOW  16  11  80 NW8       29.69R WCI   5
JAMESTOWN      FAIR      20  16  84 SW3       29.69F
MINOT AFB      FRZ RAIN  14  10  85 N8        29.68S WCI   3
GARRISON         N/A     15  12  88 N15G23    29.64R WCI   0
WILLISTON      FAIR       8   5  87 N5        29.70S WCI   0
DICKINSON      MOCLDY    22  18  85 W12       29.62R WCI  10
HETTINGER      FAIR      17  15  92 CALM      29.67S FOG
$$

 *****  OTHER AIRPORT OBSERVATIONS IN OUR AREA  *****

CITY           SKY/WX    TMP DP  RH WIND       PRES   REMARKS
WALHALLA       NOT AVBL
GRAFTON AIRPOR MOCLDY    16  10  79 N9        29.77F WCI   4
VALLEY CITY AR FAIR      21  21 100 N3        29.72R
CANDO          NOT AVBL
CAVALIER APRT    N/A     14   9  79 NW9       29.75F WCI   2
GWINNER        FAIR      27  25  93 CALM      29.73S
SHEYENNE NWR     N/A     22  19  87 W2        29.95S
ROLLA          FLURRIES  10   9  92 N8        29.68S WCI  -1
 ***** THE ABOVE OBSERVATIONS ARE NON NWS ARE NOT QUALITY
       CONTROLLED AND MAY MIS-REPORT RAIN FOR SNOW...
$$

  *****  WEATHER ACROSS NORTHERN MINNESOTA  *****

CITY           SKY/WX    TMP DP  RH WIND       PRES   REMARKS
FLAG ISLAND    CLOUDY    16  10  79 NW10      29.69R WCI   3
WARROAD        FAIR      14   9  79 W7        29.71S WCI   4
ROSEAU         FAIR      12   9  85 W7        29.72S WCI   2
HALLOCK        FAIR      10   9  92 CALM      29.75S
THF RVR FALLS  FAIR      19  14  81 NW10      29.73S WCI   7
BAUDETTE       MOCLDY    16   8  71 W7        29.68S WCI   6
WASKISH        FAIR      14  10  85 W5        29.70S WCI   6
CROOKSTON      FAIR      21  14  73 N13       29.74S WCI   9
STEPHEN NDAWN    N/A     14  10  85 N5          N/A  WCI   6
GREENBUSH NDAW   N/A      9   7  92 W3          N/A
$$
  *****  WEATHER ACROSS CENTRAL AND WEST MINNESOTA  *****

CITY           SKY/WX    TMP DP  RH WIND       PRES   REMARKS
FOSSTON        FAIR      19  16  86 N5        29.71S WCI  13
BEMIDJI        MOCLDY    19  17  90 SW3       29.68F
PARK RAPIDS    LGT SNOW  26  21  81 S5        29.69F WCI  20
ELBOW LAKE     LGT SNOW  26  25  99 N5        29.73S WCI  20
WADENA         LGT SNOW  25  23  93 CALM      29.70F VSB 3/4
DETROIT LAKES  MOCLDY    28  27  93 CALM      29.71S
MOORHEAD       FAIR      27  21  80 W5        29.74S WCI  21
FERGUS FALLS   LGT SNOW  25  25 100 CALM      29.77F
MORRIS MN      MOCLDY    30  25  80 SW12      29.72F WCI  21
STAPLES        LGT SNOW  25  25 100 CALM      29.71F
$$
  *****  WEATHER ELSEWHERE ACROSS MINNESOTA  *****

CITY           SKY/WX    TMP DP  RH WIND       PRES   REMARKS
DULUTH         LGT SNOW  26  22  84 SW9       29.71S FOG     WCI  17
INTRNTL FALLS  CLOUDY    20  13  74 W9        29.67S WCI   9
ELY            FLURRIES  19  16  86 W3        29.66S
CLOQUET        LGT SNOW  25  23  93 CALM      29.72F VSB 1
WHEATON        LGT SNOW  27  25  93 NW7       29.76S WCI  19
BRAINERD       LGT SNOW  27  26  96 SW5       29.72F VSB 1   WCI  22
HIBBING        MOCLDY    22  18  85 SW3       29.68F
ALEXANDRIA     CLOUDY    30  22  72 S13       29.71F WCI  20
SAINT CLOUD    FAIR      29  21  72 SW16      29.78S WCI  17
MINNEAPOLIS    MOCLDY    26  17  68 S9        29.85F WCI  17
$$

  *****  WEATHER ACROSS SOUTH DAKOTA  *****

CITY           SKY/WX    TMP DP  RH WIND       PRES   REMARKS
SIOUX FALLS    MOCLDY    23  18  81 S12       29.80F WCI  12
BROOKINGS      FAIR      23  19  85 S12       29.76S WCI  12
WATERTOWN      FLURRIES  26  22  84 S14       29.71F WCI  14
HURON          FAIR      27  22  81 SW7       29.77R WCI  19
SISSETON         N/A     28  26  92 N8        29.73F WCI  20
ABERDEEN       FAIR      21  19  92 CALM      29.74F
MITCHELL       CLOUDY    29  21  72 SW9       29.80S WCI  20
PIERRE         FAIR      26  21  81 S5        29.73F WCI  20
MOBRIDGE       MOCLDY    25  20  81 S3        29.67F
RAPID CITY     FAIR      20  17  88 NW9       29.70S WCI   9
$$

  *****  SOME WEATHER IN NEARBY STATES *****

CITY           SKY/WX    TMP DP  RH WIND       PRES   REMARKS
GLASGOW MT     CLOUDY    18  14  84 E12       29.65F WCI   5
GREAT FALLS MT FAIR      24   9  52 SW15      29.64S WCI  11
CHEYENNE WY    FAIR      16   1  51 W14       29.73F WCI   2
SCOTTSBLUFF NE FAIR      23  10  57 W15       29.77S WCI  10
OMAHA NE       FAIR      32  21  64 S10       29.92F WCI  24
DES MOINES IA  CLOUDY    29  20  69 S9        29.99F WCI  20
DAVENPORT IA   FAIR      24  18  77 W7        30.06R WCI  16
CHICAGO IL     FAIR      25  15  66 W9        30.01R WCI  15
EAU CLAIRE WI  FAIR      20  14  77 SW9       29.87S WCI   9
LA CROSSE WI   MOCLDY    23  13  65 S15       29.96S WCI  10
$$

  *****  SOME NATIONAL WEATHER *****

CITY           SKY/WX    TMP DP  RH WIND       PRES   REMARKS
LA GUARDIA NY  MOCLDY    50  42  74 NW13      29.59R
RALEIGH NC     FAIR      58  20  22 NW10G24   29.82R
ATLANTA GA     FAIR      48  25  40 NW14      30.04R
NEW ORLEANS LA FAIR      61  35  37 N8        30.10R
OKLAHOMA CITY  FAIR      33  19  56 SE10      30.04F WCI  25
ALBUQUERQUE NM FAIR      46  -5  11 NW9       29.86F
SALT LAKE CITY FAIR      29  23  78 S6        29.99S WCI  23
LOS ANGELES CA CLOUDY    54  47  77 W16       30.02R
BOISE ID       MOCLDY    31  18  58 E7        30.00S WCI  24
SEATTLE WA     MOCLDY    42  31  64 SW12      30.01F
$$

*** WEATHER ACROSS MANITOBA...SASKATCHEWAN AND ONTARIO ***
                ***ONTARIO***

CITY           SKY/WX    TMP DP  RH WIND       PRES   REMARKS
GERALDTON      CLEAR      7   0  72 W6        29.61R WCI  -3
THUNDER BAY    PTCLDY    18   5  57 W6        29.72R WCI   9
SIOUX LOOKOUT  LGT SNOW  12   7  79 CALM      29.61F
TORONTO        CLOUDY    28  19  69 W22       29.77R WCI  15
BIG TROUT LK   LGT SNOW   3   0  85 NW8       29.59F WCI -10
PICKLE LAKE    NOT AVBL
DRYDEN         LGT SNOW  16  14  93 VRB2      29.58F
KENORA         FLURRIES  12   9  85 W9        29.63S WCI   0
$$
                *** MANITOBA***

CITY           SKY/WX    TMP DP  RH WIND       PRES   REMARKS
BRANDON        CLEAR      5  -2  72 NW6       29.71S WCI  -6
DAUPHIN        CLEAR      5   0  78 W10       29.72S WCI -10
ISLAND LAKE    PTCLDY    -2  -6  84 W3        29.65S
PILOT MOUND      N/A      9   3  78 N1          N/A
THE PAS        FLURRIES  -4  -9  77 SE2       29.69F
THOMPSON       PTCLDY    -9 -13  84 NW5       29.66F WCI -21
WINNIPEG       FLURRIES  12   5  73 NW5       29.75F WCI   4
LYNN LAKE      CLEAR     -9 -11  92 NW5       29.64F WCI -21
CHURCHILL      CRYSTALS -22 -27  76 NW7       29.71F WCI -39
GILLAM         FLURRIES  -9 -13  84 W3        29.64F
$$
                ***SASKATCHEWAN***

CITY           SKY/WX    TMP DP  RH WIND       PRES   REMARKS
ESTEVAN        PTCLDY     1  -2  85 N6        29.69F WCI -10
KINDERSLEY     FLURRIES  19  16  86 S7        29.59F WCI  10
LLOYDMINSTER   CLOUDY    10   7  85 W7        29.59R WCI   0
PRINCE ALBERT  PTCLDY     3  -4  72 CALM      29.64F
REGINA         CLEAR      9   3  78 SE6       29.67F WCI  -1
YORKTON        CLEAR      5   0  78 SW5       29.69S WCI  -4
N. BATTLEFORD  CLEAR     12  10  92 SW3       29.63S
LA RONGE       PTCLDY    -2  -8  78 CALM      29.61S
SASKATOON      FLURRIES  16  12  86 SW9       29.65F WCI   4
SWIFT CURRENT  FLURRIES  16  12  86 SE5       29.59S WCI   9
$$
NOTE: THESE ARE AUTOMATED STATIONS WITH LIMITED QUALITY CONTROL
      "FAIR" INDICATES FEW OR NO CLOUDS BELOW 12,000 FEET WITH NO
      SIGNIFICANT WEATHER AND/OR OBSTRUCTIONS TO VISIBILITY.
      SKY/WX - SKY CONDITION AND SIGNIFICANT WEATHER.
      TMP - AIR TEMPERATURE.    DP   - DEWPOINT TEMPERATURE.
      RH  - RELATIVE HUMIDITY.  PRES - PRESSURE.
      HX  - HEAT INDEX.         WCI  - WIND CHILL INDEX.
$




USA.gov is the U.S. government's official web portal to all federal, state and local government web resources and services.